EW2832 Weather Reports


time (UTC)temp
F
wind
direction
speed
knots
gust
knots
rain 1hr
in
rain 24hr
in
rain mn
in
humidity
%
barometer
mb
20260903060014 74 0 0.0 0.0 0.00 0.00 0.00 61 1014.3
20260903055514 76 195 0.9 2.6 0.00 0.00 0.00 61 1014.2
20260903055013 76 240 0.9 2.6 0.00 0.00 0.00 61 1014.3
20260903054513 76 25 1.7 2.6 0.00 0.00 0.00 61 1014.4
20260903054013 74 23 1.7 3.5 0.00 0.00 0.00 60 1014.2
20260903053514 74 355 2.6 3.5 0.00 0.00 0.00 60 1014.2
20260903053014 74 21 2.6 3.5 0.00 0.00 0.00 61 1014.3
20260903052013 74 8 2.6 3.5 0.00 0.00 0.00 61 1014.3
20260903051513 76 37 3.5 7.0 0.00 0.00 0.00 60 1014.6
20260903051014 76 45 6.1 7.0 0.00 0.00 0.00 60 1014.8
20260903050514 76 45 7.0 7.0 0.00 0.00 0.00 61 1014.8
20260903050015 76 34 5.2 7.0 0.00 0.00 0.00 61 1015.1
20260903045513 74 22 4.3 7.0 0.00 0.00 0.00 61 1014.8
20260903045013 76 4 6.1 9.6 0.00 0.00 0.00 61 1015.2
20260903043514 74 330 7.0 12.2 0.00 0.00 0.00 61 1015.2
20260903042513 75 1 4.3 9.6 0.00 0.00 0.00 61 1015.2
20260903042013 76 347 6.1 9.6 0.00 0.00 0.00 60 1015.0
20260903041513 76 348 7.8 9.6 0.00 0.00 0.00 59 1015.0
20260903040513 78 358 12.2 18.2 0.00 0.00 0.00 55 1015.5
20260903040014 79 343 12.2 21.7 0.00 0.00 0.00 52 1015.6
20260903035513 80 286 8.7 21.7 0.00 0.00 0.00 58 1014.8
20260903035013 80 224 7.0 8.7 0.00 0.00 0.00 72 1013.5
20260903034513 80 218 7.8 10.4 0.00 0.00 0.00 73 1013.4
20260903034013 80 216 7.8 10.4 0.00 0.00 0.00 72 1013.4
20260903033513 80 230 7.8 9.6 0.00 0.00 0.00 72 1013.3
20260903033013 80 225 8.7 9.6 0.00 0.00 0.00 72 1013.6
20260903031513 79 243 7.8 9.6 0.00 0.00 0.00 73 1013.1
20260903031013 79 245 7.8 9.6 0.00 0.00 0.00 73 1013.1
20260903030514 79 252 7.0 9.6 0.00 0.00 0.00 73 1012.9
20260903025513 79 232 7.0 9.6 0.00 0.00 0.00 72 1012.3
20260903024513 80 205 8.7 9.6 0.00 0.00 0.00 71 1012.3
20260903024013 80 194 8.7 9.6 0.00 0.00 0.00 70 1012.6
20260903023513 80 209 7.8 9.6 0.00 0.00 0.00 70 1012.8
20260903023013 80 248 7.8 9.6 0.00 0.00 0.00 69 1013.0
20260903022514 80 268 7.8 9.6 0.00 0.00 0.00 69 1013.2
20260903022013 80 254 7.8 9.6 0.00 0.00 0.00 69 1013.3
20260903021513 80 249 7.8 9.6 0.00 0.00 0.00 69 1013.4
20260903021012 80 248 7.0 9.6 0.00 0.00 0.00 68 1013.4
20260903020514 80 230 7.0 7.8 0.00 0.00 0.00 68 1013.3
20260903020013 80 227 6.1 7.8 0.00 0.00 0.00 68 1013.4
20260903015013 80 251 6.1 7.8 0.00 0.00 0.00 68 1013.4
20260903014513 81 220 7.0 8.7 0.00 0.00 0.00 68 1013.5
20260903014013 81 212 7.8 9.6 0.00 0.00 0.00 67 1013.4
20260903012513 81 235 5.2 7.8 0.00 0.00 0.00 66 1013.4
20260903011013 81 245 6.1 8.7 0.00 0.00 0.00 66 1013.3
20260903010512 81 262 5.2 7.8 0.00 0.00 0.00 66 1013.3
20260903010013 81 262 5.2 7.8 0.00 0.00 0.00 66 1013.1
20260903005513 81 245 6.1 7.0 0.00 0.00 0.00 66 1013.0
20260903005014 81 253 6.1 7.0 0.00 0.00 0.00 66 1013.0
20260903004513 81 247 7.0 9.6 0.00 0.00 0.00 66 1013.0
20260903004013 81 239 7.8 9.6 0.00 0.00 0.00 65 1012.9
20260903003513 81 228 7.8 9.6 0.00 0.00 0.00 66 1012.8
20260903003014 81 211 7.8 9.6 0.00 0.00 0.00 66 1012.9
20260903002513 81 214 7.8 9.6 0.00 0.00 0.00 66 1012.9
20260903001513 82 201 7.8 8.7 0.00 0.00 0.00 65 1013.1
20260903001014 82 208 8.7 10.4 0.00 0.00 0.00 64 1013.2
20260903000513 82 228 9.6 12.2 0.00 0.00 0.00 63 1013.3
20260903000012 82 261 10.4 12.2 0.00 0.00 0.00 62 1013.3
20260902235513 82 247 9.6 12.2 0.00 0.00 0.00 63 1013.3
20260902235013 82 220 8.7 10.4 0.00 0.00 0.00 64 1013.3
20260902234514 82 222 8.7 10.4 0.00 0.00 0.00 64 1013.4
20260902234013 82 228 8.7 9.6 0.00 0.00 0.00 63 1013.3
20260902233513 82 222 7.8 9.6 0.00 0.00 0.00 63 1013.3
20260902233012 82 224 7.0 7.8 0.00 0.00 0.00 63 1013.1
20260902232513 82 237 7.0 7.8 0.00 0.00 0.00 63 1013.1
20260902232013 82 239 7.8 9.6 0.00 0.00 0.00 62 1013.3
20260902231012 83 220 7.0 9.6 0.00 0.00 0.00 62 1013.1
20260902230513 83 205 7.0 7.8 0.00 0.00 0.00 62 1013.1
20260902230013 83 216 7.0 7.8 0.00 0.00 0.00 63 1013.2
20260902225512 83 219 7.0 8.7 0.00 0.00 0.00 63 1013.0
20260902225012 83 238 7.8 8.7 0.00 0.00 0.00 63 1012.9
20260902224014 83 232 6.1 7.0 0.00 0.00 0.00 64 1012.9
20260902223513 83 228 6.1 7.0 0.00 0.00 0.00 64 1013.1
20260902223012 83 213 5.2 7.0 0.00 0.00 0.00 65 1013.0
20260902222013 83 208 7.0 9.6 0.00 0.00 0.00 65 1013.0
20260902221513 83 216 7.0 9.6 0.00 0.00 0.00 64 1013.2
20260902221013 83 220 6.1 7.0 0.00 0.00 0.00 64 1013.1
20260902220512 84 233 5.2 7.0 0.00 0.00 0.00 64 1013.2
20260902220012 83 232 6.1 7.0 0.00 0.00 0.00 64 1013.1
20260902215014 83 224 9.6 9.6 0.00 0.00 0.00 64 1013.3
20260902214013 83 220 9.6 10.4 0.00 0.00 0.00 63 1013.1
20260902213512 83 189 10.4 11.3 0.00 0.00 0.00 63 1013.3
20260902213012 84 190 10.4 12.2 0.00 0.00 0.00 62 1013.2
20260902212512 86 187 11.3 12.2 0.00 0.00 0.00 62 1013.4
20260902211513 84 216 10.4 11.3 0.00 0.00 0.00 62 1013.2
20260902211013 85 193 9.6 11.3 0.00 0.00 0.00 62 1013.4
20260902210512 85 186 9.6 9.6 0.00 0.00 0.00 62 1013.3
20260902210012 85 191 9.6 9.6 0.00 0.00 0.00 62 1013.4
20260902205513 85 201 7.8 9.6 0.00 0.00 0.00 63 1013.6
20260902203512 85 214 7.0 8.7 0.00 0.00 0.00 63 1013.7
20260902203013 85 211 7.8 10.4 0.00 0.00 0.00 63 1013.7
20260902202513 85 206 8.7 10.4 0.00 0.00 0.00 63 1013.7
20260902202012 85 200 7.8 9.6 0.00 0.00 0.00 62 1013.8
20260902201012 85 225 3.5 6.1 0.00 0.00 0.00 63 1013.9
20260902200512 85 221 3.5 7.0 0.00 0.00 0.00 64 1014.1
20260902200013 85 208 5.2 7.0 0.00 0.00 0.00 64 1014.1
20260902195512 85 219 7.8 10.4 0.00 0.00 0.00 64 1014.4
20260902194512 84 211 7.0 9.6 0.00 0.00 0.00 64 1014.4
20260902193512 84 219 6.1 7.0 0.00 0.00 0.00 65 1014.5
20260902192012 84 221 7.0 8.7 0.00 0.00 0.00 66 1014.7
20260902191512 84 221 8.7 9.6 0.00 0.00 0.00 66 1014.6
20260902191012 84 225 8.7 9.6 0.00 0.00 0.00 66 1014.8
20260902190512 84 218 8.7 9.6 0.00 0.00 0.00 67 1014.7
20260902190012 84 202 8.7 9.6 0.00 0.00 0.00 67 1014.9
20260902185513 84 195 9.6 9.6 0.00 0.00 0.00 67 1014.7
20260902185012 84 204 8.7 9.6 0.00 0.00 0.00 67 1014.8
20260902184012 84 218 5.2 7.0 0.00 0.00 0.00 68 1014.7
20260902183013 84 209 4.3 5.2 0.00 0.00 0.00 68 1014.9
20260902182512 84 217 4.3 5.2 0.00 0.00 0.00 70 1015.1
20260902182012 84 223 4.3 5.2 0.00 0.00 0.00 69 1015.2
20260902181512 85 228 4.3 5.2 0.00 0.00 0.00 70 1015.1
20260902181012 85 244 5.2 5.2 0.00 0.00 0.00 70 1015.3
20260902180512 82 217 6.1 7.0 0.00 0.00 0.00 71 1015.3
20260902180012 82 193 7.0 7.8 0.00 0.00 0.00 71 1015.3
20260902175512 83 197 7.8 7.8 0.00 0.00 0.00 72 1015.4
20260902175013 83 203 7.8 8.7 0.00 0.00 0.00 72 1015.3
20260902174512 83 199 8.7 9.6 0.00 0.00 0.00 72 1015.5
20260902174012 83 189 8.7 9.6 0.00 0.00 0.00 72 1015.5
20260902173513 82 194 8.7 9.6 0.00 0.00 0.00 73 1015.6
20260902172512 82 187 9.6 9.6 0.00 0.00 0.00 74 1015.7
20260902172012 82 182 9.6 9.6 0.00 0.00 0.00 74 1015.7
20260902171012 82 208 7.0 9.6 0.00 0.00 0.00 76 1015.8
20260902170512 81 225 6.1 6.1 0.00 0.00 0.00 78 1015.8
20260902170012 81 225 5.2 6.1 0.00 0.00 0.00 78 1016.0
20260902165512 81 232 5.2 7.0 0.00 0.00 0.00 78 1016.0
20260902165012 80 225 6.1 7.8 0.00 0.00 0.00 78 1016.0
20260902164512 80 220 7.0 8.7 0.00 0.00 0.00 78 1016.1
20260902164012 81 218 7.0 8.7 0.00 0.00 0.00 78 1016.2
20260902163512 80 217 7.0 7.0 0.00 0.00 0.00 79 1016.2
20260902163012 81 221 6.1 7.0 0.00 0.00 0.00 78 1016.2
20260902162512 81 222 5.2 7.0 0.00 0.00 0.00 79 1016.3
20260902162012 80 223 5.2 5.2 0.00 0.00 0.00 80 1016.4
20260902161511 80 217 4.3 6.1 0.00 0.00 0.00 80 1016.3
20260902161012 80 220 4.3 6.1 0.00 0.00 0.00 81 1016.4
20260902160513 80 220 4.3 6.1 0.00 0.00 0.00 81 1016.4
20260902160012 80 218 6.1 7.0 0.00 0.00 0.00 82 1016.3
20260902155512 79 217 6.1 7.0 0.00 0.00 0.00 82 1016.4
20260902155011 79 208 7.0 7.0 0.00 0.00 0.00 82 1016.3
20260902154512 79 210 7.0 7.8 0.00 0.00 0.00 83 1016.2
20260902154012 79 218 7.0 7.8 0.00 0.00 0.00 83 1016.3
20260902153012 79 228 7.0 7.8 0.00 0.00 0.00 84 1016.3
20260902152512 79 225 7.0 7.8 0.00 0.00 0.00 84 1016.4
20260902152012 78 225 7.0 8.7 0.00 0.00 0.00 85 1016.2
20260902151512 78 221 7.8 8.7 0.00 0.00 0.00 85 1016.2
20260902151012 78 221 7.8 8.7 0.00 0.00 0.00 85 1016.1
20260902150511 78 225 7.8 7.8 0.00 0.00 0.00 85 1016.0
20260902150012 78 223 6.1 7.8 0.00 0.00 0.00 86 1016.1
20260902145512 78 223 6.1 7.0 0.00 0.00 0.00 86 1016.1
20260902145012 78 219 6.1 7.0 0.00 0.00 0.00 86 1015.9
20260902144511 78 216 7.0 7.0 0.00 0.00 0.00 86 1016.1
20260902144011 78 221 7.0 8.7 0.00 0.00 0.00 87 1016.1
20260902143512 77 215 7.8 8.7 0.00 0.00 0.00 87 1015.9
20260902143012 77 212 8.7 9.6 0.00 0.00 0.00 87 1016.1
20260902142512 77 221 8.7 9.6 0.00 0.00 0.00 87 1016.1
20260902141512 77 216 7.8 9.6 0.00 0.00 0.00 88 1016.2
20260902141012 77 202 8.7 9.6 0.00 0.00 0.00 88 1016.0
20260902140512 77 192 8.7 9.6 0.00 0.00 0.00 88 1016.0
20260902140012 77 210 7.8 9.6 0.00 0.00 0.00 88 1016.0
20260902135511 77 216 7.8 8.7 0.00 0.00 0.00 88 1016.1
20260902135012 77 215 7.8 7.8 0.00 0.00 0.00 88 1016.0
20260902134513 77 213 7.8 9.6 0.00 0.00 0.00 88 1016.0
20260902134011 77 217 8.7 9.6 0.00 0.00 0.00 88 1016.0
20260902133511 77 218 8.7 9.6 0.00 0.00 0.00 88 1016.0
20260902133011 77 216 8.7 9.6 0.00 0.00 0.00 88 1016.0
20260902132512 77 223 8.7 9.6 0.00 0.00 0.00 88 1016.0
20260902132011 77 224 8.7 9.6 0.00 0.00 0.00 88 1016.0
20260902131512 77 234 7.8 9.6 0.00 0.00 0.00 88 1015.9
20260902130512 76 248 7.0 7.8 0.00 0.00 0.00 88 1015.9
20260902130011 76 218 7.0 8.7 0.00 0.00 0.00 88 1016.0
20260902125511 76 214 6.1 8.7 0.00 0.00 0.00 88 1015.8
20260902125012 76 222 5.2 7.0 0.00 0.00 0.00 88 1015.9
20260902124512 76 225 6.1 7.0 0.00 0.00 0.00 88 1015.9
20260902124011 76 224 6.1 7.0 0.00 0.00 0.00 88 1015.7
20260902123512 76 224 6.1 7.0 0.00 0.00 0.00 88 1015.6
20260902122511 76 214 5.2 6.1 0.00 0.00 0.00 87 1015.6
20260902122011 76 214 5.2 7.0 0.00 0.00 0.00 87 1015.5
20260902121512 76 214 6.1 7.0 0.00 0.00 0.00 87 1015.7
20260902121011 76 221 6.1 7.0 0.00 0.00 0.00 87 1015.7
20260902120512 76 225 7.0 7.8 0.00 0.00 0.00 86 1015.6
20260902120011 76 218 6.1 7.8 0.00 0.00 0.00 86 1015.6
20260902115511 76 208 7.0 8.7 0.00 0.00 0.00 86 1015.5
20260902115012 76 215 7.8 8.7 0.00 0.00 0.00 86 1015.5
20260902114012 76 213 7.8 8.7 0.00 0.00 0.00 86 1015.5
20260902113511 77 210 8.7 9.6 0.00 0.00 0.00 86 1015.7
20260902113012 76 214 9.6 10.4 0.00 0.00 0.00 86 1015.6
20260902111512 76 230 7.8 9.6 0.00 0.00 0.00 85 1015.7
20260902111011 76 233 7.8 9.6 0.00 0.00 0.00 85 1015.6
20260902110511 77 218 7.0 9.6 0.00 0.00 0.00 85 1015.6
20260902110011 76 215 6.1 8.7 0.00 0.00 0.00 85 1015.6
20260902105511 76 226 6.1 7.8 0.00 0.00 0.00 85 1015.5
20260902104511 77 225 5.2 6.1 0.00 0.00 0.00 85 1015.4
20260902104011 76 234 5.2 7.0 0.00 0.00 0.00 85 1015.3
20260902103011 77 229 7.0 7.8 0.00 0.00 0.00 85 1015.2
20260902102511 77 236 7.0 8.7 0.00 0.00 0.00 85 1015.3
20260902102012 77 228 7.0 8.7 0.00 0.00 0.00 85 1015.4
20260902101511 77 249 6.1 7.0 0.00 0.00 0.00 84 1015.3
20260902100511 77 285 7.0 7.0 0.00 0.00 0.00 84 1015.4
20260902100010 77 258 6.1 7.0 0.00 0.00 0.00 84 1015.2
20260902095511 77 263 6.1 7.0 0.00 0.00 0.00 84 1015.5
20260902094011 77 214 6.1 7.0 0.00 0.00 0.00 84 1015.5
20260902093511 77 238 5.2 7.0 0.00 0.00 0.00 84 1015.3
20260902093011 77 249 4.3 6.1 0.00 0.00 0.00 83 1015.2
20260902092511 77 229 4.3 6.1 0.00 0.00 0.00 83 1015.4
20260902092011 77 226 5.2 7.0 0.00 0.00 0.00 83 1015.2
20260902091511 77 217 7.0 8.7 0.00 0.00 0.00 83 1015.3
20260902091011 77 208 7.8 8.7 0.00 0.00 0.00 82 1015.3
20260902090510 77 200 7.8 8.7 0.00 0.00 0.00 82 1015.2
20260902085511 77 181 8.7 9.6 0.00 0.00 0.00 81 1015.1
20260902085011 77 181 7.8 8.7 0.00 0.00 0.00 81 1015.2
20260902084511 77 181 7.0 7.0 0.00 0.00 0.00 81 1015.0
20260902084011 76 183 5.2 7.0 0.00 0.00 0.00 81 1015.0
20260902083511 76 188 3.5 5.2 0.00 0.00 0.00 80 1015.2
20260902083011 76 197 2.6 3.5 0.00 0.00 0.00 80 1015.3
20260902082511 76 194 3.5 4.3 0.00 0.00 0.00 80 1015.2
20260902082011 76 184 3.5 4.3 0.00 0.00 0.00 81 1015.3
20260902081511 76 181 2.6 4.3 0.00 0.00 0.00 81 1015.1
20260902081011 76 181 0.9 3.5 0.00 0.00 0.00 81 1015.2
20260902080011 76 181 0.9 2.6 0.00 0.00 0.00 81 1015.3
20260902075511 76 181 1.7 2.6 0.00 0.00 0.00 82 1015.4
20260902075010 76 181 1.7 2.6 0.00 0.00 0.00 82 1015.4
20260902074511 76 181 1.7 2.6 0.00 0.00 0.00 82 1015.3
20260902074011 76 181 2.6 3.5 0.00 0.00 0.00 83 1015.3
20260902073511 76 181 3.5 4.3 0.00 0.00 0.00 83 1015.3
20260902073011 76 181 4.3 4.3 0.00 0.00 0.00 83 1015.2
20260902072512 76 181 4.3 4.3 0.00 0.00 0.00 83 1015.2
20260902072011 76 181 4.3 4.3 0.00 0.00 0.00 83 1015.2
20260902071511 76 181 3.5 4.3 0.00 0.00 0.00 83 1015.3
20260902070510 76 181 3.5 4.3 0.00 0.00 0.00 82 1015.3
20260902070011 76 181 4.3 4.3 0.00 0.00 0.00 82 1015.1
20260902065011 76 181 4.3 4.3 0.00 0.00 0.00 81 1015.2
20260902064511 76 181 4.3 4.3 0.00 0.00 0.00 81 1015.2
20260902064010 76 181 3.5 3.5 0.00 0.00 0.00 81 1015.2
20260902063011 76 181 2.6 3.5 0.00 0.00 0.00 81 1015.4
20260902062511 76 181 0.9 3.5 0.00 0.00 0.00 80 1015.5
20260902062011 76 0 0.0 0.0 0.00 0.00 0.00 80 1015.5
20260902061010 76 0 0.0 0.0 0.00 0.00 0.00 79 1015.7